Overview Statistics Trail Chart Weather Telemetry Raw packets
 

This is the latest recevied weather packets stored in our database for station/object IW1RCO-13. If no packets are shown the sender has not sent any weather packets the latest 10 day(s).

<< 11 12 13 14 15 16 17 >>
Time Temp. Humidity Pressure Rain* Wind** Luminosity Snow
1788593367 22.78° C 68% 1019.3 hPa - - - -
1788593070 22.78° C 68% 1019.4 hPa - - - -
1788592773 22.22° C 69% 1018.9 hPa - - - -
1788592470 22.22° C 69% 1019.2 hPa - - - -
1788590372 20.56° C 72% 1019.3 hPa - - - -
1788590069 20° C 71% 1018.9 hPa - - - -
1788589772 20° C 70% 1019.1 hPa - - - -
1788589468 19.44° C 70% 1019.5 hPa - - - -
1788589172 18.89° C 69% 1019.5 hPa - - - -
1788588868 18.33° C 68% 1018.6 hPa - - - -
1788588571 17.78° C 66% 1018.7 hPa - - - -
1788588268 17.22° C 64% 1019.2 hPa - - - -
1788587971 17.78° C 62% 1018.8 hPa - - - -
1788587668 17.22° C 60% 1019.6 hPa - - - -
1788587371 17.22° C 61% 1019.2 hPa - - - -
1788587068 16.67° C 62% 1019.2 hPa - - - -
1788586771 17.22° C 60% 1018.3 hPa - - - -
1788586467 17.22° C 61% 1018.9 hPa - - - -
1788586170 17.22° C 61% 1018.1 hPa - - - -
1788584970 17.78° C 59% 1019.2 hPa - - - -
1788584673 17.78° C 58% 1018.6 hPa - - - -
1788584369 17.22° C 58% 1018.1 hPa - - - -
1788584073 17.22° C 61% 1018.6 hPa - - - -
1788583769 17.22° C 57% 1018.2 hPa - - - -
1788583473 16.67° C 60% 1018.9 hPa - - - -

* Rain since midnight (hover to see other rain measurements)
** Current wind speed in m/s (hover to see current wind gust speed)